Location: Albany
(35.0000°S, 118.0000°E)
Time: 03:02:04
(UTC-04:00)

ISS - All Passes

Search period start: 03 September 2014 00:00
Search period end: 13 September 2014 00:00
Orbit: 413 x 418 km, 51.6° (Epoch: 03 September)

Date Brightness Start Highest point End Pass type
(mag) Time Alt. Az. Time Alt. Az. Time Alt. Az.
03 Sep - 08:12:03 10° NW 08:15:26 87° NE 08:18:52 10° SE visible
03 Sep - 09:50:48 10° WSW 09:52:36 14° SSW 09:54:23 10° S night (unlit)
03 Sep - 14:43:55 10° SSW 14:46:49 25° SE 14:49:42 10° E night (unlit)
03 Sep - 16:20:33 10° WSW 16:23:32 29° NW 16:26:30 10° NNE visible
04 Sep - 07:23:42 10° NNW 07:26:55 43° NE 07:30:11 10° ESE visible
04 Sep - 09:01:14 10° W 09:03:48 20° SSW 09:06:23 10° SSE visible
04 Sep - 13:55:46 10° SSW 13:58:04 17° SSE 14:00:21 10° ESE night (unlit)
04 Sep - 15:31:42 10° SW 15:35:03 57° NW 15:38:22 10° NE night (unlit)
05 Sep - 06:35:45 10° N 06:38:27 22° NE 06:41:10 10° ESE visible
05 Sep - 08:12:00 10° W 08:15:04 31° SW 08:18:09 10° SSE visible
05 Sep - 13:07:55 10° S 13:09:13 12° SSE 13:10:30 10° SE night (unlit)
05 Sep - 14:43:04 10° SW 14:46:29 72° SE 14:49:51 10° NE night (unlit)
06 Sep - 05:48:41 10° NNE 05:50:01 12° NE 05:51:22 10° ENE daylight
06 Sep - 07:23:03 10° WNW 07:26:22 54° SW 07:29:44 10° SE visible
06 Sep - 09:03:24 10° SSW 09:03:45 10° SSW 09:04:05 10° SSW visible
06 Sep - 13:54:35 10° SSW 13:57:49 38° SE 14:01:00 10° ENE night (unlit)
06 Sep - 15:32:00 10° W 15:34:19 17° NW 15:36:36 10° N night (unlit)
07 Sep - 06:34:22 10° NW 06:37:44 78° NE 06:41:09 10° SE visible
07 Sep - 08:12:54 10° WSW 08:14:50 14° SSW 08:16:47 10° S visible
07 Sep - 13:06:14 10° SSW 13:09:04 23° SSE 13:11:51 10° E night (unlit)
07 Sep - 14:42:44 10° WSW 14:45:49 32° NW 14:48:52 10° NNE night (unlit)
08 Sep - 05:46:00 10° NNW 05:49:09 38° NE 05:52:20 10° ESE daylight
08 Sep - 07:23:19 10° W 07:25:58 21° SSW 07:28:39 10° SSE visible
08 Sep - 12:18:03 10° S 12:20:13 16° SSE 12:22:22 10° ESE night (unlit)
08 Sep - 13:53:51 10° SW 13:57:15 65° NW 14:00:35 10° NE night (unlit)
09 Sep - 04:58:04 10° N 05:00:36 20° NE 05:03:10 10° E daylight
09 Sep - 06:34:03 10° WNW 06:37:10 33° SW 06:40:18 10° SSE visible
09 Sep - 11:30:16 10° S 11:31:16 11° SSE 11:32:17 10° SE night (unlit)
09 Sep - 13:05:11 10° SW 13:08:35 64° SE 13:11:56 10° ENE night (unlit)
09 Sep - 14:44:42 10° WNW 14:44:52 10° NW 14:45:02 10° NW night (unlit)
10 Sep - 04:11:22 10° NE 04:12:06 11° NE 04:12:51 10° ENE daylight
10 Sep - 05:45:04 10° WNW 05:48:24 61° SW 05:51:47 10° SE daylight
10 Sep - 07:24:52 10° SW 07:25:44 11° SSW 07:26:35 10° S visible
10 Sep - 12:16:39 10° SSW 12:19:49 35° SE 12:22:57 10° ENE night (unlit)
10 Sep - 13:53:51 10° W 13:56:21 19° NW 13:58:50 10° N night (unlit)
11 Sep - 04:56:21 10° NW 04:59:42 68° NE 05:03:05 10° SE daylight
11 Sep - 06:34:40 10° WSW 06:36:45 15° SSW 06:38:51 10° S visible
11 Sep - 11:28:15 10° SSW 11:30:58 22° SSE 11:33:40 10° E night (unlit)
11 Sep - 13:04:36 10° WSW 13:07:46 36° NW 13:10:54 10° NNE night (unlit)
12 Sep - 04:07:58 10° NNW 04:11:03 34° NE 04:14:09 10° ESE daylight
12 Sep - 05:45:04 10° W 05:47:49 23° SSW 05:50:36 10° SSE daylight
12 Sep - 10:40:01 10° S 10:42:01 15° SSE 10:44:01 10° ESE night (unlit)
12 Sep - 12:15:42 10° SW 12:19:06 74° NW 12:22:28 10° NE night (unlit)
